Location: Berg
(47.2344°N, 9.5296°E)
Time: 12:41:47
(UTC+00:00)

Cosmos 405 - Pass Details

Date: 24 January 2021
Orbit: 448 x 462 km, 81.3° (Epoch: 06 March)

Event Time Altitude Azimuth Distance (km) Brightness Sun altitude
Rises 17:22:47 0° 360° (N) 2,508 6.5 -12.0°
Reaches altitude 10° 17:25:11 10° 15° (NNE) 1,625 5.4 -12.4°
Maximum altitude 17:28:06 23° 70° (ENE) 1,019 4.1 -12.9°
Enters shadow 17:29:04 21° 95° (E) 1,098 4.3 -13.0°
